This demonstration page uses our WeatherBlox Daily Observations layout. Learn more.

Left ArrowRight Arrow

Hourly Observations for May 20, 2022

Temp ( °F °C ) Dew Point ( °F °C ) Humidity (%) Winds ( mph kmh ) Pressure ( in mb ) Visibility ( mi km ) Precip ( " mm )
12:56 am 00:56 Clear 52 11.1 37 2.8 57 57 N 25 41 29.46 998 10 16 0.00 0.00
1:56 am 01:56 Mostly Cloudy 51 10.6 36 2.2 56 56 N 20 31 29.46 998 10 16 0.00 0.00
2:56 am 02:56 Cloudy 52 11.1 36 2.2 55 55 N 21 33 29.45 997 10 16 0.00 0.00
3:56 am 03:56 Cloudy 52 11.1 37 2.8 57 57 N 20 31 29.47 998 10 16 0.00 0.00
4:56 am 04:56 Cloudy 51 10.6 37 2.8 59 59 N 14 22 29.50 999 10 16 0.00 0.00
5:56 am 05:56 Cloudy 51 10.6 37 2.8 59 59 N 14 22 29.52 1000 10 16 0.00 0.00
6:56 am 06:56 Cloudy 51 10.6 38 3.3 61 61 NNW 12 19 29.54 1000 10 16 0.00 0.00
7:56 am 07:56 Cloudy 51 10.6 38 3.3 61 61 NW 13 20 29.59 1002 10 16 0.00 0.00
8:56 am 08:56 Cloudy 53 11.7 38 3.3 57 57 WNW 14 22 29.64 1004 10 16 0.00 0.00
9:56 am 09:56 Cloudy 56 13.3 37 2.8 49 49 WNW 13 20 29.66 1004 10 16 0.00 0.00
10:56 am 10:56 Cloudy 59 15 33 0.6 38 38 NNW 20 31 29.66 1004 10 16 0.00 0.00
11:56 am 11:56 Cloudy 63 17.2 33 0.6 33 33 NW 17 28 29.67 1005 10 16 0.00 0.00
12:56 pm 12:56 Cloudy 63 17.2 31 -0.6 30 30 NNW 17 28 29.68 1005 10 16 0.00 0.00
1:56 pm 13:56 Cloudy 64 17.8 30 -1.1 28 28 WNW 17 28 29.70 1006 10 16 0.00 0.00
2:56 pm 14:56 Cloudy 63 17.2 29 -1.7 28 28 NNW 21 33 29.71 1006 10 16 0.00 0.00
3:56 pm 15:56 Cloudy 62 16.7 27 -2.8 26 26 NW 20 31 29.75 1007 10 16 0.00 0.00
4:56 pm 16:56 Cloudy 61 16.1 29 -1.7 30 30 NNW 17 28 29.78 1009 10 16 0.00 0.00
5:56 pm 17:56 Cloudy 59 15 28 -2.2 31 31 NW 20 31 29.81 1010 10 16 0.00 0.00
6:56 pm 18:56 Cloudy 58 14.4 27 -2.8 31 31 NNW 16 26 29.84 1011 10 16 0.00 0.00
7:56 pm 19:56 Cloudy 54 12.2 32 0 43 43 NNW 21 33 29.89 1012 10 16 0.00 0.00
8:56 pm 20:56 Cloudy 53 11.7 31 -0.6 43 43 NNW 16 26 29.94 1014 10 16 0.00 0.00
9:56 pm 21:56 Cloudy 52 11.1 32 0 47 47 NNW 16 26 29.98 1015 10 16 0.00 0.00
10:56 pm 22:56 Cloudy 51 10.6 35 1.7 54 54 N 14 22 30.00 1016 10 16 0.00 0.00
11:56 pm 23:56 Cloudy 50 10 35 1.7 57 57 N 12 19 30.01 1016 10 16 0.00 0.00

Powered by AerisWeather